DW6569 Weather Reports


time (UTC)temp
C
wind
direction
speed
KPH
gust
KPH
rain 1hr
cm
rain 24hr
cm
rain mn
cm
humidity
%
barometer
mb
20260906092006 20 0 0.0 0.0 0.00 0.58 0.00 100 1012.1
20260906091006 20 0 0.0 0.0 0.00 0.58 0.00 95 1011.9
20260906090006 20 0 0.0 0.0 0.00 0.58 0.00 95 1012.1
20260906085006 20 0 0.0 0.0 0.00 0.58 0.00 95 1012.1
20260906084007 20 0 0.0 0.0 0.00 0.58 0.00 95 1012.1
20260906082006 21 0 0.0 0.0 0.00 0.58 0.00 95 1012.1
20260906081006 21 0 0.0 0.0 0.00 0.58 0.00 95 1012.3
20260906080006 21 0 0.0 0.0 0.00 0.58 0.00 95 1012.1
20260906075006 21 0 0.0 0.0 0.00 0.58 0.00 95 1012.5
20260906074006 21 0 0.0 0.0 0.00 0.58 0.00 95 1012.5
20260906073007 21 0 0.0 0.0 0.00 0.58 0.00 95 1012.5
20260906072006 21 0 0.0 0.0 0.00 0.58 0.00 95 1012.1
20260906071007 21 0 0.0 0.0 0.00 0.58 0.00 95 1012.1
20260906070007 21 0 0.0 0.0 0.00 0.58 0.00 95 1012.1
20260906065006 21 0 0.0 0.0 0.00 0.58 0.00 95 1012.5
20260906064006 21 0 0.0 0.0 0.00 0.58 0.00 95 1012.8
20260906063007 21 0 0.0 0.0 0.00 0.58 0.00 95 1012.6
20260906061007 21 0 0.0 0.0 0.00 0.58 0.00 95 1012.8
20260906055006 21 0 0.0 0.0 0.00 0.58 0.00 94 1012.8
20260906054007 21 0 0.0 0.0 0.00 0.58 0.00 94 1012.8
20260906053007 21 0 0.0 0.0 0.00 0.58 0.00 93 1013.2
20260906052007 22 0 0.0 0.0 0.00 0.58 0.00 93 1013.2
20260906050007 22 0 0.0 0.0 0.00 0.58 0.00 93 1013.2
20260906045008 22 0 0.0 0.0 0.00 0.58 0.00 93 1013.2
20260906043008 22 0 0.0 0.0 0.00 0.58 0.00 92 1013.2
20260906042006 22 0 0.0 0.0 0.00 0.58 0.00 93 1012.8
20260906040007 22 0 0.0 0.0 0.00 0.58 0.00 93 1012.8
20260906035006 22 0 0.0 0.0 0.00 0.58 0.58 93 1012.8
20260906034008 22 0 0.0 0.0 0.00 0.58 0.58 93 1013.1
20260906033007 22 0 0.0 0.0 0.00 0.58 0.58 93 1012.8
20260906032007 22 0 0.0 0.0 0.00 0.58 0.58 93 1012.8
20260906031007 22 0 0.0 0.0 0.00 0.58 0.58 92 1013.5
20260906030006 22 0 0.0 0.0 0.00 0.58 0.58 92 1013.4
20260906025007 22 0 0.0 0.0 0.00 0.58 0.58 92 1013.5
20260906024006 22 0 0.0 0.0 0.00 0.58 0.58 91 1013.5
20260906023007 22 0 0.0 0.0 0.00 0.58 0.58 91 1013.2
20260906022006 23 0 0.0 0.0 0.00 0.58 0.58 90 1012.9
20260906021008 23 0 0.0 0.0 0.00 0.58 0.58 90 1013.2
20260906020007 23 0 0.0 0.0 0.00 0.58 0.58 90 1013.2
20260906015006 23 0 0.0 0.0 0.00 0.58 0.58 89 1013.2
20260906014007 23 0 0.0 0.0 0.00 0.58 0.58 89 1013.1
20260906013007 23 0 0.0 0.0 0.00 0.58 0.58 88 1012.8
20260906012006 23 0 0.0 0.0 0.00 0.58 0.58 87 1012.6
20260906011007 23 0 0.0 0.0 0.00 0.58 0.58 87 1012.5
20260906010007 24 0 0.0 0.0 0.00 0.58 0.58 86 1012.1
20260906004007 25 0 0.0 0.0 0.00 0.58 0.58 85 1012.1
20260906001007 25 0 0.0 0.0 0.00 0.58 0.58 84 1012.1
20260906000006 26 0 0.0 0.0 0.00 0.58 0.58 82 1012.5
20260905235007 26 0 0.0 0.0 0.00 0.58 0.58 81 1012.1
20260905234007 26 0 0.0 0.0 0.00 0.58 0.58 80 1012.1
20260905233007 27 0 0.0 0.0 0.00 0.58 0.58 79 1012.3
20260905232007 27 0 0.0 0.0 0.00 0.58 0.58 79 1011.8
20260905231008 27 0 0.0 0.0 0.00 0.58 0.58 78 1011.8
20260905230004 27 0 0.0 0.0 0.00 0.58 0.58 77 1012.1
20260905225005 28 0 0.0 0.0 0.00 0.58 0.58 76 1011.8
20260905224005 28 0 0.0 0.0 0.00 0.58 0.58 75 1012.1
20260905223005 29 0 0.0 0.0 0.00 0.58 0.58 73 1012.3
20260905222005 29 0 0.0 0.0 0.00 0.58 0.58 74 1012.5
20260905220006 30 0 0.0 0.0 0.00 0.58 0.58 71 1012.5
20260905215005 31 0 0.0 0.0 0.00 0.58 0.58 70 1012.5
20260905213006 31 0 0.0 0.0 0.00 0.58 0.58 70 1012.1
20260905212005 30 0 0.0 0.0 0.00 0.58 0.58 70 1012.1
20260905211006 31 0 0.0 0.0 0.00 0.58 0.58 69 1011.9
20260905210005 30 0 0.0 0.0 0.00 0.58 0.58 71 1011.8
20260905205006 30 0 0.0 0.0 0.00 0.58 0.58 69 1012.0
20260905204006 30 0 0.0 0.0 0.00 0.58 0.58 70 1011.8
20260905203005 30 0 0.0 0.0 0.00 0.58 0.58 71 1011.8
20260905202006 30 0 0.0 0.0 0.00 0.58 0.58 71 1011.8
20260905201005 29 0 0.0 0.0 0.00 0.58 0.58 72 1011.8
20260905200005 28 0 0.0 0.0 0.00 0.58 0.58 73 1012.1
20260905195006 28 0 0.0 0.0 0.00 0.58 0.58 71 1012.7
20260905194006 28 0 0.0 0.0 0.00 0.58 0.58 74 1012.8
20260905193008 28 0 0.0 0.0 0.00 0.58 0.58 75 1013.2
20260905192006 28 0 0.0 0.0 0.00 0.58 0.58 74 1013.2
20260905191005 28 0 0.0 0.0 0.00 0.58 0.58 72 1013.4
20260905190005 28 0 0.0 0.0 0.00 0.58 0.58 75 1013.5
20260905185005 27 0 0.0 0.0 0.00 0.58 0.58 79 1013.8
20260905184006 27 0 0.0 0.0 0.00 0.58 0.58 80 1014.5
20260905183006 27 0 0.0 0.0 0.00 0.58 0.58 82 1014.5
20260905182005 26 0 0.0 0.0 0.00 0.58 0.58 82 1014.9
20260905181006 26 0 0.0 0.0 0.00 0.58 0.58 83 1015.2
20260905180006 26 0 0.0 0.0 0.00 0.58 0.58 85 1015.2
20260905175006 25 0 0.0 0.0 0.00 0.58 0.58 85 1015.2
20260905174005 25 0 0.0 0.0 0.00 0.58 0.58 87 1015.5
20260905172007 23 0 0.0 0.0 0.00 0.58 0.58 91 1016.2
20260905171006 23 0 0.0 0.0 0.00 0.58 0.58 91 1015.7
20260905165005 22 0 0.0 0.0 0.00 0.58 0.58 93 1015.5
20260905164006 22 0 0.0 0.0 0.00 0.58 0.58 93 1015.5
20260905163005 21 0 0.0 0.0 0.00 0.58 0.58 93 1015.7
20260905161005 21 0 0.0 0.0 0.00 0.58 0.58 92 1016.2
20260905154005 21 0 0.0 0.0 0.58 0.58 0.58 92 1016.9
20260905153006 21 0 0.0 0.0 0.58 0.58 0.58 91 1017.2
20260905152005 22 0 0.0 0.0 0.58 0.58 0.58 90 1016.5
20260905151006 22 0 0.0 0.0 0.58 0.58 0.58 89 1016.5
20260905145005 25 0 0.0 0.0 0.00 0.00 0.00 85 1015.2
20260905143006 25 0 0.0 0.0 0.00 0.00 0.00 87 1014.9
20260905142005 25 0 0.0 0.0 0.00 0.00 0.00 87 1015.2
20260905141006 25 0 0.0 0.0 0.00 0.00 0.00 86 1015.5
20260905134005 23 0 0.0 0.0 0.00 0.00 0.00 90 1015.5
20260905132006 23 0 0.0 0.0 0.00 0.00 0.00 93 1015.5
20260905131006 22 0 0.0 0.0 0.00 0.00 0.00 93 1015.7
20260905130006 22 0 0.0 0.0 0.00 0.00 0.00 94 1015.5
20260905124006 21 0 0.0 0.0 0.00 0.00 0.00 94 1015.7
20260905123006 21 0 0.0 0.0 0.00 0.00 0.00 95 1015.5
20260905122006 20 0 0.0 0.0 0.00 0.00 0.00 95 1015.5
20260905121006 20 0 0.0 0.0 0.00 0.00 0.00 95 1015.5
20260905115006 19 0 0.0 0.0 0.00 0.00 0.00 95 1015.3
20260905114005 19 0 0.0 0.0 0.00 0.00 0.00 95 1015.2
20260905113006 19 0 0.0 0.0 0.00 0.00 0.00 95 1015.2
20260905112006 19 0 0.0 0.0 0.00 0.00 0.00 95 1015.2
20260905110006 19 0 0.0 0.0 0.00 0.00 0.00 95 1014.9
20260905105006 19 0 0.0 0.0 0.00 0.00 0.00 94 1014.9
20260905104006 19 0 0.0 0.0 0.00 0.00 0.00 94 1014.5
20260905103006 19 0 0.0 0.0 0.00 0.00 0.00 94 1014.5
20260905102006 20 0 0.0 0.0 0.00 0.00 0.00 94 1014.5
20260905095007 20 0 0.0 0.0 0.00 0.00 0.00 94 1014.5
20260905094006 20 0 0.0 0.0 0.00 0.00 0.00 94 1014.5
20260905093006 20 0 0.0 0.0 0.00 0.00 0.00 94 1014.5